This demonstration page uses our WeatherBlox Daily Observations layout. Learn more.

39.29038, -76.61219

Hourly Observations for July 12, 2020

Temp ( °F °C ) Dew Point ( °F °C ) Humidity (%) Winds ( mph kmh ) Pressure ( in mb ) Visibility ( mi km ) Precip ( " mm )
12:54 am 00:54 Mostly Clear 75 23.9 65 18.3 71 71 WSW 3 6 29.77 1008 10 16.0934 0 0
1:54 am 01:54 Clear 72 22.2 64 17.8 76 76 WSW 5 7 29.77 1008 10 16.0934 0 0
2:54 am 02:54 Clear 70 21.1 62 16.7 76 76 W 7 11 29.76 1008 10 16.0934 0 0
3:54 am 03:54 Clear 70 21.1 61 16.1 73 73 W 5 7 29.74 1007 10 16.0934 0 0
4:54 am 04:54 Clear 70 21.1 60 15.6 71 71 W 6 9 29.74 1007 10 16.0934 0 0
5:54 am 05:54 Mostly Sunny 71 21.7 60 15.6 68 68 SW 5 7 29.76 1008 10 16.0934 0 0
6:54 am 06:54 Mostly Sunny 72 22.2 60 15.6 66 66 SSW 6 9 29.78 1008 10 16.0934 0 0
7:54 am 07:54 Mostly Sunny 76 24.4 62 16.7 62 62 SW 3 6 29.78 1009 10 16.0934 0 0
8:54 am 08:54 Mostly Sunny 81 27.2 63 17.2 54 54 VRB 3 6 29.79 1009 10 16.0934 0 0
9:54 am 09:54 Mostly Sunny 84 28.9 65 18.3 53 53 SW 7 11 29.8 1009 10 16.0934 0 0
10:54 am 10:54 Mostly Sunny 87 30.6 65 18.3 48 48 SSW 6 9 29.79 1009 10 16.0934 0 0
11:54 am 11:54 Mostly Sunny 87 30.6 63 17.2 45 45 S 8 13 29.78 1009 10 16.0934 0 0
12:54 pm 12:54 Partly Cloudy 89 31.7 63 17.2 42 42 VRB 5 7 29.77 1008 10 16.0934 0 0
1:54 pm 13:54 Mostly Cloudy 90 32.2 62 16.7 39 39 S 6 9 29.76 1008 10 16.0934 0 0
2:54 pm 14:54 Mostly Cloudy 87 30.6 66 18.9 50 50 SE 12 19 29.75 1007 10 16.0934 0 0
3:54 pm 15:54 Mostly Cloudy 88 31.1 67 19.4 50 50 SSE 9 15 29.73 1007 10 16.0934 0 0
4:54 pm 16:54 Mostly Cloudy 86 30 65 18.3 49 49 S 7 11 29.72 1006 10 16.0934 0 0
5:54 pm 17:54 Mostly Cloudy 85 29.4 67 19.4 55 55 S 3 6 29.72 1007 10 16.0934 0 0
6:54 pm 18:54 Mostly Cloudy 84 28.9 68 20 59 59 Calm 29.72 1006 10 16.0934 0 0
7:54 pm 19:54 Cloudy with Light Rain 79 26.1 69 20.6 72 72 NW 15 24 29.74 1007 10 16.0934 0.001 0.001
8:54 pm 20:54 Mostly Cloudy 74 23.3 70 21.1 88 88 Calm 29.75 1007 10 16.0934 0.02 0.508
9:54 pm 21:54 Cloudy with Light Rain 75 23.9 71 21.7 88 88 Calm 29.77 1008 9 14.48406 0.001 0.001
10:54 pm 22:54 Mostly Cloudy 75 23.9 72 22.2 90 90 WSW 5 7 29.79 1009 10 16.0934 0.001 0.001
11:54 pm 23:54 Mostly Cloudy 73 22.8 70 21.1 90 90 WNW 3 6 29.78 1008 10 16.0934 0 0

Powered by AerisWeather